Tahitian Princess — ZCDD8 — position and weather

sailwx.info

Track history (hours):
 
Tides and Currents Weather Stations Pressure Air Temp Water Temp Dewpoint Dewpoint Depression Visibility Wind Speed Wind Dir Waves Ship Positions

Tahitian Princess

Operator: P & O Irish Sea Ltd

Last reported at 2017-Nov-24 09:28 UTC. Time now 2017-Nov-24 09:33 UTC.
Position N 53°21' W 006°09'.

Length 167 m; draft 5.8 m.

Type: Passenger vessel. MMSI: 310362000.

Date/timePositionNaut miles runAvg speedWind from/ knotsBaromVisibWave heightAir tempDewpointWater temp
2017-Nov-24 09:28N 53°21' W 006°09'2 4.5
2017-Nov-24 08:57N 53°21' W 006°13'0 0.0
2017-Nov-24 08:30N 53°21' W 006°13'0 0.0
2017-Nov-24 08:00N 53°21' W 006°13'0 0.0
2017-Nov-24 07:29N 53°21' W 006°13'0 0.0
2017-Nov-24 06:59N 53°21' W 006°13'0 0.0
2017-Nov-24 06:29N 53°21' W 006°13'0 0.0
2017-Nov-24 06:00N 53°21' W 006°13'0 0.0
2017-Nov-24 05:30N 53°21' W 006°13'0 0.3
2017-Nov-24 05:00N 53°21' W 006°13'4 8.1
2017-Nov-24 04:30N 53°20' W 006°06'917.8
2017-Nov-24 04:00N 53°23' W 005°52'6518.6
2017-Nov-24 00:30N 53°37' W 004°05'918.8
2017-Nov-24 00:00N 53°34' W 003°50'918.8
2017-Nov-23 23:30N 53°33' W 003°34'918.4
2017-Nov-23 23:00N 53°32' W 003°19'815.7
2017-Nov-23 22:30N 53°31' W 003°06'5 9.5
2017-Nov-23 22:00N 53°27' W 003°01'0 0.0
2017-Nov-23 21:30N 53°27' W 003°01'0 0.9
2017-Nov-23 21:00N 53°27' W 003°01'0 0.0
2017-Nov-23 20:30N 53°27' W 003°01'0 0.0
2017-Nov-23 20:00N 53°27' W 003°01'0 0.0
2017-Nov-23 19:30N 53°27' W 003°01'0 0.0
2017-Nov-23 19:00N 53°27' W 003°01'0 0.0
2017-Nov-23 18:30N 53°27' W 003°01'0 0.0
2017-Nov-23 18:00N 53°27' W 003°01'0 0.0
2017-Nov-23 17:30N 53°27' W 003°01'0 0.0
2017-Nov-23 17:00N 53°27' W 003°01'0 0.9
2017-Nov-23 16:30N 53°27' W 003°01'0 0.3
2017-Nov-23 16:00N 53°27' W 003°01'510.3
2017-Nov-23 15:30N 53°31' W 003°07'816.5
2017-Nov-23 15:00N 53°31' W 003°20'917.1
2017-Nov-23 14:30N 53°31' W 003°35'917.8
2017-Nov-23 14:00N 53°31' W 003°50'1020.3
2017-Nov-23 13:30N 53°32' W 004°07'5720.6
2017-Nov-23 10:43N 53°25' W 005°43'620.6
2017-Nov-23 10:26N 53°24' W 005°52'920.4
2017-Nov-23 10:00N 53°20' W 006°05'5 9.6
2017-Nov-23 09:30N 53°21' W 006°13'0 0.0
2017-Nov-23 08:45N 53°21' W 006°13'0 0.0
2017-Nov-23 07:30N 53°21' W 006°13'0 0.0
2017-Nov-23 05:54N 53°21' W 006°13'0 0.0
2017-Nov-23 05:30N 53°21' W 006°13'2 3.8
2017-Nov-23 05:00N 53°21' W 006°10'816.1
2017-Nov-23 04:30N 53°22' W 005°57'1119.9
2017-Nov-23 03:59N 53°26' W 005°40'5819.0
2017-Nov-23 00:57N 53°36' W 004°05'919.1
2017-Nov-23 00:30N 53°35' W 003°50'918.8
2017-Nov-23 00:00N 53°34' W 003°35'919.0
2017-Nov-22 23:30N 53°32' W 003°19'816.3
2017-Nov-22 23:00N 53°30' W 003°06'5 9.2
2017-Nov-22 22:30N 53°27' W 003°01'0 0.6
2017-Nov-22 22:00N 53°27' W 003°01'0 0.8
2017-Nov-22 21:30N 53°27' W 003°01'0 0.0
2017-Nov-22 21:00N 53°27' W 003°01'0 0.0
2017-Nov-22 20:30N 53°27' W 003°01'0 0.0
2017-Nov-22 20:00N 53°27' W 003°01'0 0.0
2017-Nov-22 19:30N 53°27' W 003°01'  
2017-Nov-19 05:29N 53°22' W 005°59'7119.3
2017-Nov-19 01:48N 53°35' W 004°02'620.3
2017-Nov-19 01:30N 53°35' W 003°52'1019.6
2017-Nov-19 01:00N 53°34' W 003°36'1019.0
2017-Nov-19 00:30N 53°32' W 003°20'917.4
2017-Nov-19 00:00N 53°30' W 003°06'4 8.6
2017-Nov-18 23:30N 53°27' W 003°01'0 0.9
2017-Nov-18 23:00N 53°27' W 003°01'0 0.0
2017-Nov-18 22:30N 53°27' W 003°01'0 0.0
2017-Nov-18 22:00N 53°27' W 003°01'0 0.0
2017-Nov-18 21:30N 53°27' W 003°01'0 0.0
2017-Nov-18 21:00N 53°27' W 003°01'0 0.0
2017-Nov-18 20:30N 53°27' W 003°01'0 0.0
2017-Nov-18 20:00N 53°27' W 003°01'0 0.0
2017-Nov-18 19:30N 53°27' W 003°01'0 0.0
2017-Nov-18 19:00N 53°27' W 003°01'0 0.0
2017-Nov-18 18:30N 53°27' W 003°01'0 0.0
2017-Nov-18 18:00N 53°27' W 003°01'0 0.0
2017-Nov-18 17:30N 53°27' W 003°01'0 0.0
2017-Nov-18 17:00N 53°27' W 003°01'0 0.9
2017-Nov-18 16:30N 53°27' W 003°01'0 0.4
2017-Nov-18 16:00N 53°27' W 003°01'612.8
2017-Nov-18 15:30N 53°32' W 003°09'816.5
2017-Nov-18 15:00N 53°31' W 003°22'1019.1
2017-Nov-18 14:30N 53°31' W 003°39'918.7
2017-Nov-18 14:00N 53°32' W 003°54'918.6
2017-Nov-18 13:30N 53°33' W 004°10'3 0.2
2017-Nov-18 00:44N 53°35' W 004°06'419.6
2017-Nov-18 00:30N 53°35' W 003°58'1019.1
2017-Nov-18 00:00N 53°34' W 003°43'918.6
2017-Nov-17 23:30N 53°32' W 003°27'918.1
2017-Nov-17 23:00N 53°31' W 003°12'713.6
2017-Nov-17 22:30N 53°28' W 003°02'2 3.3
2017-Nov-17 22:00N 53°26' W 003°01'1 1.2
2017-Nov-17 21:30N 53°27' W 003°01'1 1.0
2017-Nov-17 21:00N 53°27' W 003°01'0 0.0
2017-Nov-17 20:30N 53°27' W 003°01'0 0.0
2017-Nov-17 20:00N 53°27' W 003°01'0 0.0
2017-Nov-17 19:30N 53°27' W 003°01'0 0.0
2017-Nov-17 19:00N 53°27' W 003°01'0 0.0
2017-Nov-17 18:30N 53°27' W 003°01'0 0.0
2017-Nov-17 18:00N 53°27' W 003°01'0 0.0
2017-Nov-17 17:30N 53°27' W 003°01'0 0.0
2017-Nov-17 17:00N 53°27' W 003°01'0 0.9
2017-Nov-17 16:30N 53°27' W 003°01'0 0.3
2017-Nov-17 16:00N 53°27' W 003°01'510.4
2017-Nov-17 15:30N 53°31' W 003°07'714.4
2017-Nov-17 15:00N 53°31' W 003°19'1019.5
2017-Nov-17 14:30N 53°31' W 003°35'1019.1
2017-Nov-17 14:00N 53°32' W 003°51'1019.0
2017-Nov-17 13:30N 53°33' W 004°07'67 7.4
2017-Nov-17 04:29N 53°22' W 005°58'7119.4
2017-Nov-17 00:51N 53°37' W 004°03'720.1
2017-Nov-17 00:30N 53°35' W 003°51'1019.8
2017-Nov-17 00:00N 53°33' W 003°35'1019.3
2017-Nov-16 23:30N 53°32' W 003°19'917.1
2017-Nov-16 23:00N 53°30' W 003°05'4 7.1
2017-Nov-16 22:30N 53°27' W 003°01'0 0.9
2017-Nov-16 22:00N 53°27' W 003°01'0 0.0
2017-Nov-16 21:29N 53°27' W 003°01'0 0.0
2017-Nov-16 21:00N 53°27' W 003°01'0 0.0
2017-Nov-16 20:30N 53°27' W 003°01'0 0.0
2017-Nov-16 20:00N 53°27' W 003°01'0 0.0
2017-Nov-16 19:30N 53°27' W 003°01'0 0.0
2017-Nov-16 19:00N 53°27' W 003°01'0 0.0
2017-Nov-16 18:30N 53°27' W 003°01'0 0.0
2017-Nov-16 18:00N 53°27' W 003°01'0 0.0
2017-Nov-16 17:31N 53°27' W 003°01'0 0.0
2017-Nov-16 17:00N 53°27' W 003°01'0 0.9
2017-Nov-16 16:30N 53°27' W 003°01'0 0.8
2017-Nov-16 16:00N 53°27' W 003°02'713.4
2017-Nov-16 15:30N 53°32' W 003°10'816.2
2017-Nov-16 15:01N 53°31' W 003°23'1019.4
2017-Nov-16 14:30N 53°31' W 003°40'1019.1
2017-Nov-16 14:00N 53°32' W 003°56'3 0.2
2017-Nov-15 23:56N 53°35' W 003°59'1018.0
2017-Nov-15 23:23N 53°34' W 003°43'718.0
2017-Nov-15 23:00N 53°34' W 003°31'917.7
2017-Nov-15 22:30N 53°32' W 003°17'815.2
2017-Nov-15 22:00N 53°29' W 003°05'3 6.2
2017-Nov-15 21:30N 53°27' W 003°01'0 0.9
2017-Nov-15 21:00N 53°27' W 003°01'0 0.0
2017-Nov-15 20:30N 53°27' W 003°01'0 0.0
2017-Nov-15 20:00N 53°27' W 003°01'0 0.0
2017-Nov-15 19:30N 53°27' W 003°01'0 0.0
2017-Nov-15 19:00N 53°27' W 003°01'0 0.0
2017-Nov-15 18:30N 53°27' W 003°01'0 0.0
2017-Nov-15 18:00N 53°27' W 003°01'0 0.0
2017-Nov-15 17:30N 53°27' W 003°01'0 0.0
2017-Nov-15 17:00N 53°27' W 003°01'0 0.9
2017-Nov-15 16:30N 53°27' W 003°01'0 0.3
2017-Nov-15 16:00N 53°27' W 003°01'510.0
2017-Nov-15 15:30N 53°31' W 003°06'815.3
2017-Nov-15 15:00N 53°31' W 003°19'1019.9
2017-Nov-15 14:30N 53°31' W 003°36'1019.5
2017-Nov-15 14:00N 53°32' W 003°52'76 7.8
2017-Nov-15 04:17N 53°22' W 005°58'816.0
2017-Nov-15 03:49N 53°24' W 005°46'6317.1
2017-Nov-15 00:07N 53°34' W 004°01'219.2
2017-Nov-14 23:59N 53°34' W 003°57'1119.7
2017-Nov-14 23:27N 53°33' W 003°39'919.4
2017-Nov-14 23:00N 53°33' W 003°24'918.3
2017-Nov-14 22:30N 53°32' W 003°09'713.6
2017-Nov-14 22:00N 53°27' W 003°01'0 0.6
2017-Nov-14 21:31N 53°27' W 003°01'0 0.4
2017-Nov-14 21:00N 53°27' W 003°01'0 0.0
2017-Nov-14 20:27N 53°27' W 003°01'0 0.0
2017-Nov-14 19:54N 53°27' W 003°01'0 0.0
2017-Nov-14 19:30N 53°27' W 003°01'0 0.0
2017-Nov-14 18:57N 53°27' W 003°01'0 0.0
2017-Nov-14 18:30N 53°27' W 003°01'0 0.0
2017-Nov-14 18:00N 53°27' W 003°01'0 0.0
2017-Nov-14 17:30N 53°27' W 003°01'0 0.0
2017-Nov-14 17:00N 53°27' W 003°01'0 0.9
2017-Nov-14 16:30N 53°27' W 003°01'0 0.3
2017-Nov-14 16:00N 53°27' W 003°01'4 8.8
2017-Nov-14 15:30N 53°30' W 003°06'815.6
2017-Nov-14 15:00N 53°31' W 003°19'1020.1
2017-Nov-14 14:30N 53°31' W 003°36'1020.0
2017-Nov-14 14:00N 53°32' W 003°53'7419.2
2017-Nov-14 10:09N 53°22' W 005°56'319.7
2017-Nov-14 10:00N 53°21' W 006°01'613.0
2017-Nov-14 09:30N 53°21' W 006°11'  
Track history (hours):
 
Tides and Currents Weather Stations Pressure Air Temp Water Temp Dewpoint Dewpoint Depression Visibility Wind Speed Wind Dir Waves Ship Positions

Tahitian Princess

Operator: P & O Irish Sea Ltd

Last reported at 2017-Nov-24 09:28 UTC. Time now 2017-Nov-24 09:33 UTC.
Position N 53°21' W 006°09'.

Length 167 m; draft 5.8 m.

Type: Passenger vessel. MMSI: 310362000.

Date/timePositionNaut miles runAvg speedWind from/ knotsBaromVisibWave heightAir tempDewpointWater temp
2017-Nov-24 09:28N 53°21' W 006°09'2 4.5
2017-Nov-24 08:57N 53°21' W 006°13'0 0.0
2017-Nov-24 08:30N 53°21' W 006°13'0 0.0
2017-Nov-24 08:00N 53°21' W 006°13'0 0.0
2017-Nov-24 07:29N 53°21' W 006°13'0 0.0
2017-Nov-24 06:59N 53°21' W 006°13'0 0.0
2017-Nov-24 06:29N 53°21' W 006°13'0 0.0
2017-Nov-24 06:00N 53°21' W 006°13'0 0.0
2017-Nov-24 05:30N 53°21' W 006°13'0 0.3
2017-Nov-24 05:00N 53°21' W 006°13'4 8.1
2017-Nov-24 04:30N 53°20' W 006°06'917.8
2017-Nov-24 04:00N 53°23' W 005°52'6518.6
2017-Nov-24 00:30N 53°37' W 004°05'918.8
2017-Nov-24 00:00N 53°34' W 003°50'918.8
2017-Nov-23 23:30N 53°33' W 003°34'918.4
2017-Nov-23 23:00N 53°32' W 003°19'815.7
2017-Nov-23 22:30N 53°31' W 003°06'5 9.5
2017-Nov-23 22:00N 53°27' W 003°01'0 0.0
2017-Nov-23 21:30N 53°27' W 003°01'0 0.9
2017-Nov-23 21:00N 53°27' W 003°01'0 0.0
2017-Nov-23 20:30N 53°27' W 003°01'0 0.0
2017-Nov-23 20:00N 53°27' W 003°01'0 0.0
2017-Nov-23 19:30N 53°27' W 003°01'0 0.0
2017-Nov-23 19:00N 53°27' W 003°01'0 0.0
2017-Nov-23 18:30N 53°27' W 003°01'0 0.0
2017-Nov-23 18:00N 53°27' W 003°01'0 0.0
2017-Nov-23 17:30N 53°27' W 003°01'0 0.0
2017-Nov-23 17:00N 53°27' W 003°01'0 0.9
2017-Nov-23 16:30N 53°27' W 003°01'0 0.3
2017-Nov-23 16:00N 53°27' W 003°01'510.3
2017-Nov-23 15:30N 53°31' W 003°07'816.5
2017-Nov-23 15:00N 53°31' W 003°20'917.1
2017-Nov-23 14:30N 53°31' W 003°35'917.8
2017-Nov-23 14:00N 53°31' W 003°50'1020.3
2017-Nov-23 13:30N 53°32' W 004°07'5720.6
2017-Nov-23 10:43N 53°25' W 005°43'620.6
2017-Nov-23 10:26N 53°24' W 005°52'920.4
2017-Nov-23 10:00N 53°20' W 006°05'5 9.6
2017-Nov-23 09:30N 53°21' W 006°13'0 0.0
2017-Nov-23 08:45N 53°21' W 006°13'0 0.0
2017-Nov-23 07:30N 53°21' W 006°13'0 0.0
2017-Nov-23 05:54N 53°21' W 006°13'0 0.0
2017-Nov-23 05:30N 53°21' W 006°13'2 3.8
2017-Nov-23 05:00N 53°21' W 006°10'816.1
2017-Nov-23 04:30N 53°22' W 005°57'1119.9
2017-Nov-23 03:59N 53°26' W 005°40'5819.0
2017-Nov-23 00:57N 53°36' W 004°05'919.1
2017-Nov-23 00:30N 53°35' W 003°50'918.8
2017-Nov-23 00:00N 53°34' W 003°35'919.0
2017-Nov-22 23:30N 53°32' W 003°19'816.3
2017-Nov-22 23:00N 53°30' W 003°06'5 9.2
2017-Nov-22 22:30N 53°27' W 003°01'0 0.6
2017-Nov-22 22:00N 53°27' W 003°01'0 0.8
2017-Nov-22 21:30N 53°27' W 003°01'0 0.0
2017-Nov-22 21:00N 53°27' W 003°01'0 0.0
2017-Nov-22 20:30N 53°27' W 003°01'0 0.0
2017-Nov-22 20:00N 53°27' W 003°01'0 0.0
2017-Nov-22 19:30N 53°27' W 003°01'  
2017-Nov-19 05:29N 53°22' W 005°59'7119.3
2017-Nov-19 01:48N 53°35' W 004°02'620.3
2017-Nov-19 01:30N 53°35' W 003°52'1019.6
2017-Nov-19 01:00N 53°34' W 003°36'1019.0
2017-Nov-19 00:30N 53°32' W 003°20'917.4
2017-Nov-19 00:00N 53°30' W 003°06'4 8.6
2017-Nov-18 23:30N 53°27' W 003°01'0 0.9
2017-Nov-18 23:00N 53°27' W 003°01'0 0.0
2017-Nov-18 22:30N 53°27' W 003°01'0 0.0
2017-Nov-18 22:00N 53°27' W 003°01'0 0.0
2017-Nov-18 21:30N 53°27' W 003°01'0 0.0
2017-Nov-18 21:00N 53°27' W 003°01'0 0.0
2017-Nov-18 20:30N 53°27' W 003°01'0 0.0
2017-Nov-18 20:00N 53°27' W 003°01'0 0.0
2017-Nov-18 19:30N 53°27' W 003°01'0 0.0
2017-Nov-18 19:00N 53°27' W 003°01'0 0.0
2017-Nov-18 18:30N 53°27' W 003°01'0 0.0
2017-Nov-18 18:00N 53°27' W 003°01'0 0.0
2017-Nov-18 17:30N 53°27' W 003°01'0 0.0
2017-Nov-18 17:00N 53°27' W 003°01'0 0.9
2017-Nov-18 16:30N 53°27' W 003°01'0 0.4
2017-Nov-18 16:00N 53°27' W 003°01'612.8
2017-Nov-18 15:30N 53°32' W 003°09'816.5
2017-Nov-18 15:00N 53°31' W 003°22'1019.1
2017-Nov-18 14:30N 53°31' W 003°39'918.7
2017-Nov-18 14:00N 53°32' W 003°54'918.6
2017-Nov-18 13:30N 53°33' W 004°10'3 0.2
2017-Nov-18 00:44N 53°35' W 004°06'419.6
2017-Nov-18 00:30N 53°35' W 003°58'1019.1
2017-Nov-18 00:00N 53°34' W 003°43'918.6
2017-Nov-17 23:30N 53°32' W 003°27'918.1
2017-Nov-17 23:00N 53°31' W 003°12'713.6
2017-Nov-17 22:30N 53°28' W 003°02'2 3.3
2017-Nov-17 22:00N 53°26' W 003°01'1 1.2
2017-Nov-17 21:30N 53°27' W 003°01'1 1.0
2017-Nov-17 21:00N 53°27' W 003°01'0 0.0
2017-Nov-17 20:30N 53°27' W 003°01'0 0.0
2017-Nov-17 20:00N 53°27' W 003°01'0 0.0
2017-Nov-17 19:30N 53°27' W 003°01'0 0.0
2017-Nov-17 19:00N 53°27' W 003°01'0 0.0
2017-Nov-17 18:30N 53°27' W 003°01'0 0.0
2017-Nov-17 18:00N 53°27' W 003°01'0 0.0
2017-Nov-17 17:30N 53°27' W 003°01'0 0.0
2017-Nov-17 17:00N 53°27' W 003°01'0 0.9
2017-Nov-17 16:30N 53°27' W 003°01'0 0.3
2017-Nov-17 16:00N 53°27' W 003°01'510.4
2017-Nov-17 15:30N 53°31' W 003°07'714.4
2017-Nov-17 15:00N 53°31' W 003°19'1019.5
2017-Nov-17 14:30N 53°31' W 003°35'1019.1
2017-Nov-17 14:00N 53°32' W 003°51'1019.0
2017-Nov-17 13:30N 53°33' W 004°07'67 7.4
2017-Nov-17 04:29N 53°22' W 005°58'7119.4
2017-Nov-17 00:51N 53°37' W 004°03'720.1
2017-Nov-17 00:30N 53°35' W 003°51'1019.8
2017-Nov-17 00:00N 53°33' W 003°35'1019.3
2017-Nov-16 23:30N 53°32' W 003°19'917.1
2017-Nov-16 23:00N 53°30' W 003°05'4 7.1
2017-Nov-16 22:30N 53°27' W 003°01'0 0.9
2017-Nov-16 22:00N 53°27' W 003°01'0 0.0
2017-Nov-16 21:29N 53°27' W 003°01'0 0.0
2017-Nov-16 21:00N 53°27' W 003°01'0 0.0
2017-Nov-16 20:30N 53°27' W 003°01'0 0.0
2017-Nov-16 20:00N 53°27' W 003°01'0 0.0
2017-Nov-16 19:30N 53°27' W 003°01'0 0.0
2017-Nov-16 19:00N 53°27' W 003°01'0 0.0
2017-Nov-16 18:30N 53°27' W 003°01'0 0.0
2017-Nov-16 18:00N 53°27' W 003°01'0 0.0
2017-Nov-16 17:31N 53°27' W 003°01'0 0.0
2017-Nov-16 17:00N 53°27' W 003°01'0 0.9
2017-Nov-16 16:30N 53°27' W 003°01'0 0.8
2017-Nov-16 16:00N 53°27' W 003°02'713.4
2017-Nov-16 15:30N 53°32' W 003°10'816.2
2017-Nov-16 15:01N 53°31' W 003°23'1019.4
2017-Nov-16 14:30N 53°31' W 003°40'1019.1
2017-Nov-16 14:00N 53°32' W 003°56'3 0.2
2017-Nov-15 23:56N 53°35' W 003°59'1018.0
2017-Nov-15 23:23N 53°34' W 003°43'718.0
2017-Nov-15 23:00N 53°34' W 003°31'917.7
2017-Nov-15 22:30N 53°32' W 003°17'815.2
2017-Nov-15 22:00N 53°29' W 003°05'3 6.2
2017-Nov-15 21:30N 53°27' W 003°01'0 0.9
2017-Nov-15 21:00N 53°27' W 003°01'0 0.0
2017-Nov-15 20:30N 53°27' W 003°01'0 0.0
2017-Nov-15 20:00N 53°27' W 003°01'0 0.0
2017-Nov-15 19:30N 53°27' W 003°01'0 0.0
2017-Nov-15 19:00N 53°27' W 003°01'0 0.0
2017-Nov-15 18:30N 53°27' W 003°01'0 0.0
2017-Nov-15 18:00N 53°27' W 003°01'0 0.0
2017-Nov-15 17:30N 53°27' W 003°01'0 0.0
2017-Nov-15 17:00N 53°27' W 003°01'0 0.9
2017-Nov-15 16:30N 53°27' W 003°01'0 0.3
2017-Nov-15 16:00N 53°27' W 003°01'510.0
2017-Nov-15 15:30N 53°31' W 003°06'815.3
2017-Nov-15 15:00N 53°31' W 003°19'1019.9
2017-Nov-15 14:30N 53°31' W 003°36'1019.5
2017-Nov-15 14:00N 53°32' W 003°52'76 7.8
2017-Nov-15 04:17N 53°22' W 005°58'816.0
2017-Nov-15 03:49N 53°24' W 005°46'6317.1
2017-Nov-15 00:07N 53°34' W 004°01'219.2
2017-Nov-14 23:59N 53°34' W 003°57'1119.7
2017-Nov-14 23:27N 53°33' W 003°39'919.4
2017-Nov-14 23:00N 53°33' W 003°24'918.3
2017-Nov-14 22:30N 53°32' W 003°09'713.6
2017-Nov-14 22:00N 53°27' W 003°01'0 0.6
2017-Nov-14 21:31N 53°27' W 003°01'0 0.4
2017-Nov-14 21:00N 53°27' W 003°01'0 0.0
2017-Nov-14 20:27N 53°27' W 003°01'0 0.0
2017-Nov-14 19:54N 53°27' W 003°01'0 0.0
2017-Nov-14 19:30N 53°27' W 003°01'0 0.0
2017-Nov-14 18:57N 53°27' W 003°01'0 0.0
2017-Nov-14 18:30N 53°27' W 003°01'0 0.0
2017-Nov-14 18:00N 53°27' W 003°01'0 0.0
2017-Nov-14 17:30N 53°27' W 003°01'0 0.0
2017-Nov-14 17:00N 53°27' W 003°01'0 0.9
2017-Nov-14 16:30N 53°27' W 003°01'0 0.3
2017-Nov-14 16:00N 53°27' W 003°01'4 8.8
2017-Nov-14 15:30N 53°30' W 003°06'815.6
2017-Nov-14 15:00N 53°31' W 003°19'1020.1
2017-Nov-14 14:30N 53°31' W 003°36'1020.0
2017-Nov-14 14:00N 53°32' W 003°53'7419.2
2017-Nov-14 10:09N 53°22' W 005°56'319.7
2017-Nov-14 10:00N 53°21' W 006°01'613.0
2017-Nov-14 09:30N 53°21' W 006°11'  

Dump ship's entire track history